Year,Month,Day,Hour,Minute,Value (Times are PST for temperature in C)
2008,06,10,00,00,7.30
2008,06,10,00,01,7.30
2008,06,10,00,02,7.30
2008,06,10,00,03,7.30
2008,06,10,00,04,7.30
2008,06,10,00,05,7.30
2008,06,10,00,06,7.20
2008,06,10,00,07,7.20
2008,06,10,00,08,7.20
2008,06,10,00,09,7.20
2008,06,10,00,10,7.20
2008,06,10,00,11,7.20
2008,06,10,00,12,7.20
2008,06,10,00,13,7.20
2008,06,10,00,14,7.20
2008,06,10,00,15,7.20
2008,06,10,00,16,7.20
2008,06,10,00,17,7.20
2008,06,10,00,18,7.30
2008,06,10,00,19,7.20
2008,06,10,00,20,7.30
2008,06,10,00,21,7.30
2008,06,10,00,22,7.30
2008,06,10,00,23,7.30
2008,06,10,00,24,7.30
2008,06,10,00,25,7.30
2008,06,10,00,26,7.30
2008,06,10,00,27,7.30
2008,06,10,00,28,7.20
2008,06,10,00,29,7.30
2008,06,10,00,30,7.20
2008,06,10,00,31,7.30
2008,06,10,00,32,7.30
2008,06,10,00,33,7.30
2008,06,10,00,34,7.30
2008,06,10,00,35,7.30
2008,06,10,00,36,7.30
2008,06,10,00,37,7.30
2008,06,10,00,38,7.30
2008,06,10,00,39,7.30
2008,06,10,00,40,7.30
2008,06,10,00,41,7.30
2008,06,10,00,42,7.30
2008,06,10,00,43,7.30
2008,06,10,00,44,7.30
2008,06,10,00,45,7.30
2008,06,10,00,46,7.30
2008,06,10,00,47,7.30
2008,06,10,00,48,7.30
2008,06,10,00,49,7.30
2008,06,10,00,50,7.30
2008,06,10,00,51,7.20
2008,06,10,00,52,7.20
2008,06,10,00,53,7.20
2008,06,10,00,54,7.20
2008,06,10,00,55,7.20
2008,06,10,00,56,7.20
2008,06,10,00,57,7.20
2008,06,10,00,58,7.20
2008,06,10,00,59,7.20
2008,06,10,01,00,7.20
2008,06,10,01,01,7.20
2008,06,10,01,02,7.20
2008,06,10,01,03,7.20
2008,06,10,01,04,7.20
2008,06,10,01,05,7.20
2008,06,10,01,06,7.20
2008,06,10,01,07,7.20
2008,06,10,01,08,7.20
2008,06,10,01,09,7.20
2008,06,10,01,10,7.20
2008,06,10,01,11,7.20
2008,06,10,01,12,7.20
2008,06,10,01,13,7.20
2008,06,10,01,14,7.20
2008,06,10,01,15,7.20
2008,06,10,01,16,7.20
2008,06,10,01,17,7.20
2008,06,10,01,18,7.20
2008,06,10,01,19,7.20
2008,06,10,01,20,7.20
2008,06,10,01,21,7.20
2008,06,10,01,22,7.20
2008,06,10,01,23,7.20
2008,06,10,01,24,7.20
2008,06,10,01,25,7.20
2008,06,10,01,26,7.20
2008,06,10,01,27,7.20
2008,06,10,01,28,7.20
2008,06,10,01,29,7.20
2008,06,10,01,30,7.20
2008,06,10,01,31,7.20
2008,06,10,01,32,7.20
2008,06,10,01,33,7.20
2008,06,10,01,34,7.20
2008,06,10,01,35,7.20
2008,06,10,01,36,7.20
2008,06,10,01,37,7.20
2008,06,10,01,38,7.20
2008,06,10,01,39,7.20
2008,06,10,01,40,7.20
2008,06,10,01,41,7.30
2008,06,10,01,42,7.30
2008,06,10,01,43,7.30
2008,06,10,01,44,7.30
2008,06,10,01,45,7.30
2008,06,10,01,46,7.30
2008,06,10,01,47,7.20
2008,06,10,01,48,7.20
2008,06,10,01,49,7.20
2008,06,10,01,50,7.20
2008,06,10,01,51,7.20
2008,06,10,01,52,7.20
2008,06,10,01,53,7.20
2008,06,10,01,54,7.20
2008,06,10,01,55,7.20
2008,06,10,01,56,7.20
2008,06,10,01,57,7.20
2008,06,10,01,58,7.20
2008,06,10,01,59,7.20
2008,06,10,02,00,7.20
2008,06,10,02,01,7.30
2008,06,10,02,02,7.30
2008,06,10,02,03,7.30
2008,06,10,02,04,7.30
2008,06,10,02,05,7.30
2008,06,10,02,06,7.30
2008,06,10,02,07,7.30
2008,06,10,02,08,7.30
2008,06,10,02,09,7.30
2008,06,10,02,10,7.30
2008,06,10,02,11,7.30
2008,06,10,02,12,7.20
2008,06,10,02,13,7.20
2008,06,10,02,14,7.20
2008,06,10,02,15,7.20
2008,06,10,02,16,7.20
2008,06,10,02,17,7.20
2008,06,10,02,18,7.20
2008,06,10,02,19,7.20
2008,06,10,02,20,7.20
2008,06,10,02,21,7.20
2008,06,10,02,22,7.20
2008,06,10,02,23,7.20
2008,06,10,02,24,7.20
2008,06,10,02,25,7.20
2008,06,10,02,26,7.20
2008,06,10,02,27,7.20
2008,06,10,02,28,7.20
2008,06,10,02,29,7.20
2008,06,10,02,30,7.20
2008,06,10,02,31,7.20
2008,06,10,02,32,7.10
2008,06,10,02,33,7.10
2008,06,10,02,34,7.10
2008,06,10,02,35,7.00
2008,06,10,02,36,7.00
2008,06,10,02,37,7.00
2008,06,10,02,38,6.90
2008,06,10,02,39,6.90
2008,06,10,02,40,6.90
2008,06,10,02,41,6.80
2008,06,10,02,42,6.80
2008,06,10,02,43,6.80
2008,06,10,02,44,6.80
2008,06,10,02,45,6.80
2008,06,10,02,46,6.80
2008,06,10,02,47,6.80
2008,06,10,02,48,6.80
2008,06,10,02,49,6.80
2008,06,10,02,50,6.80
2008,06,10,02,51,6.80
2008,06,10,02,52,6.70
2008,06,10,02,53,6.70
2008,06,10,02,54,6.70
2008,06,10,02,55,6.70
2008,06,10,02,56,6.70
2008,06,10,02,57,6.70
2008,06,10,02,58,6.70
2008,06,10,02,59,6.70
2008,06,10,03,00,6.70
2008,06,10,03,01,6.70
2008,06,10,03,02,6.60
2008,06,10,03,03,6.60
2008,06,10,03,04,6.60
2008,06,10,03,05,6.60
2008,06,10,03,06,6.60
2008,06,10,03,07,6.60
2008,06,10,03,08,6.60
2008,06,10,03,09,6.60
2008,06,10,03,10,6.60
2008,06,10,03,11,6.70
2008,06,10,03,12,6.70
2008,06,10,03,13,6.70
2008,06,10,03,14,6.70
2008,06,10,03,15,6.70
2008,06,10,03,16,6.70
2008,06,10,03,17,6.70
2008,06,10,03,18,6.80
2008,06,10,03,19,6.80
2008,06,10,03,20,6.80
2008,06,10,03,21,6.80
2008,06,10,03,22,6.80
2008,06,10,03,23,6.80
2008,06,10,03,24,6.80
2008,06,10,03,25,6.90
2008,06,10,03,26,6.90
2008,06,10,03,27,6.90
2008,06,10,03,28,6.90
2008,06,10,03,29,6.90
2008,06,10,03,30,6.90
2008,06,10,03,31,6.90
2008,06,10,03,32,6.90
2008,06,10,03,33,6.90
2008,06,10,03,34,6.90
2008,06,10,03,35,6.90
2008,06,10,03,36,6.90
2008,06,10,03,37,6.90
2008,06,10,03,38,6.90
2008,06,10,03,39,6.90
2008,06,10,03,40,6.90
2008,06,10,03,41,6.90
2008,06,10,03,42,6.90
2008,06,10,03,43,6.90
2008,06,10,03,44,6.90
2008,06,10,03,45,6.90
2008,06,10,03,46,6.90
2008,06,10,03,47,6.90
2008,06,10,03,48,6.90
2008,06,10,03,49,7.00
2008,06,10,03,50,7.00
2008,06,10,03,51,7.00
2008,06,10,03,52,7.00
2008,06,10,03,53,7.10
2008,06,10,03,54,7.10
2008,06,10,03,55,7.10
2008,06,10,03,56,7.10
2008,06,10,03,57,7.10
2008,06,10,03,58,7.20
2008,06,10,03,59,7.20
2008,06,10,04,00,7.20
2008,06,10,04,01,7.20
2008,06,10,04,02,7.20
2008,06,10,04,03,7.20
2008,06,10,04,04,7.20
2008,06,10,04,05,7.20
2008,06,10,04,06,7.30
2008,06,10,04,07,7.30
2008,06,10,04,08,7.30
2008,06,10,04,09,7.30
2008,06,10,04,10,7.30
2008,06,10,04,11,7.30
2008,06,10,04,12,7.30
2008,06,10,04,13,7.30
2008,06,10,04,14,7.30
2008,06,10,04,15,7.30
2008,06,10,04,16,7.30
2008,06,10,04,17,7.30
2008,06,10,04,18,7.30
2008,06,10,04,19,7.30
2008,06,10,04,20,7.30
2008,06,10,04,21,7.30
2008,06,10,04,22,7.30
2008,06,10,04,23,7.30
2008,06,10,04,24,7.30
2008,06,10,04,25,7.30
2008,06,10,04,26,7.20
2008,06,10,04,27,7.20
2008,06,10,04,28,7.20
2008,06,10,04,29,7.20
2008,06,10,04,30,7.20
2008,06,10,04,31,7.10
2008,06,10,04,32,7.10
2008,06,10,04,33,7.10
2008,06,10,04,34,7.10
2008,06,10,04,35,7.10
2008,06,10,04,36,7.00
2008,06,10,04,37,7.00
2008,06,10,04,38,7.00
2008,06,10,04,39,6.90
2008,06,10,04,40,6.90
2008,06,10,04,41,6.90
2008,06,10,04,42,6.80
2008,06,10,04,43,6.80
2008,06,10,04,44,6.80
2008,06,10,04,45,6.80
2008,06,10,04,46,6.80
2008,06,10,04,47,6.80
2008,06,10,04,48,6.80
2008,06,10,04,49,6.80
2008,06,10,04,50,6.80
2008,06,10,04,51,6.80
2008,06,10,04,52,6.80
2008,06,10,04,53,6.80
2008,06,10,04,54,6.80
2008,06,10,04,55,6.80
2008,06,10,04,56,6.80
2008,06,10,04,57,6.80
2008,06,10,04,58,6.80
2008,06,10,04,59,6.80
2008,06,10,05,00,6.80
2008,06,10,05,01,6.80
2008,06,10,05,02,6.80
2008,06,10,05,03,6.80
2008,06,10,05,04,6.80
2008,06,10,05,05,6.80
2008,06,10,05,06,6.80
2008,06,10,05,07,6.80
2008,06,10,05,08,6.80
2008,06,10,05,09,6.80
2008,06,10,05,10,6.80
2008,06,10,05,11,6.80
2008,06,10,05,12,6.80
2008,06,10,05,13,6.80
2008,06,10,05,14,6.80
2008,06,10,05,15,6.80
2008,06,10,05,16,6.80
2008,06,10,05,17,6.80
2008,06,10,05,18,6.80
2008,06,10,05,19,6.80
2008,06,10,05,20,6.80
2008,06,10,05,21,6.80
2008,06,10,05,22,6.80
2008,06,10,05,23,6.80
2008,06,10,05,24,6.80
2008,06,10,05,25,6.80
2008,06,10,05,26,6.80
2008,06,10,05,27,6.80
2008,06,10,05,28,6.80
2008,06,10,05,29,6.80
2008,06,10,05,30,6.80
2008,06,10,05,31,6.80
2008,06,10,05,32,6.80
2008,06,10,05,33,6.80
2008,06,10,05,34,6.80
2008,06,10,05,35,6.80
2008,06,10,05,36,6.80
2008,06,10,05,37,6.80
2008,06,10,05,38,6.80
2008,06,10,05,39,6.80
2008,06,10,05,40,6.90
2008,06,10,05,41,6.90
2008,06,10,05,42,6.90
2008,06,10,05,43,6.90
2008,06,10,05,44,6.90
2008,06,10,05,45,6.90
2008,06,10,05,46,6.90
2008,06,10,05,47,6.90
2008,06,10,05,48,6.90
2008,06,10,05,49,6.90
2008,06,10,05,50,6.90
2008,06,10,05,51,6.90
2008,06,10,05,52,6.90
2008,06,10,05,53,6.90
2008,06,10,05,54,6.90
2008,06,10,05,55,6.90
2008,06,10,05,56,6.90
2008,06,10,05,57,6.90
2008,06,10,05,58,6.90
2008,06,10,05,59,6.90
2008,06,10,06,00,6.90
2008,06,10,06,01,6.90
2008,06,10,06,02,7.00
2008,06,10,06,03,7.00
2008,06,10,06,04,7.00
2008,06,10,06,05,7.00
2008,06,10,06,06,7.00
2008,06,10,06,07,7.00
2008,06,10,06,08,7.00
2008,06,10,06,09,7.00
2008,06,10,06,10,7.10
2008,06,10,06,11,7.10
2008,06,10,06,12,7.10
2008,06,10,06,13,7.10
2008,06,10,06,14,7.10
2008,06,10,06,15,7.20
2008,06,10,06,16,7.20
2008,06,10,06,17,7.20
2008,06,10,06,18,7.20
2008,06,10,06,19,7.20
2008,06,10,06,20,7.20
2008,06,10,06,21,7.20
2008,06,10,06,22,7.20
2008,06,10,06,23,7.20
2008,06,10,06,24,7.20
2008,06,10,06,25,7.20
2008,06,10,06,26,7.20
2008,06,10,06,27,7.20
2008,06,10,06,28,7.20
2008,06,10,06,29,7.20
2008,06,10,06,30,7.20
2008,06,10,06,31,7.20
2008,06,10,06,32,7.20
2008,06,10,06,33,7.20
2008,06,10,06,34,7.20
2008,06,10,06,35,7.20
2008,06,10,06,36,7.20
2008,06,10,06,37,7.20
2008,06,10,06,38,7.20
2008,06,10,06,39,7.20
2008,06,10,06,40,7.30
2008,06,10,06,41,7.30
2008,06,10,06,42,7.30
2008,06,10,06,43,7.30
2008,06,10,06,44,7.30
2008,06,10,06,45,7.30
2008,06,10,06,46,7.30
2008,06,10,06,47,7.30
2008,06,10,06,48,7.30
2008,06,10,06,49,7.30
2008,06,10,06,50,7.30
2008,06,10,06,51,7.30
2008,06,10,06,52,7.30
2008,06,10,06,53,7.30
2008,06,10,06,54,7.30
2008,06,10,06,55,7.30
2008,06,10,06,56,7.30
2008,06,10,06,57,7.30
2008,06,10,06,58,7.40
2008,06,10,06,59,7.40
2008,06,10,07,00,7.40
2008,06,10,07,01,7.40
2008,06,10,07,02,7.40
2008,06,10,07,03,7.40
2008,06,10,07,04,7.40
2008,06,10,07,05,7.50
2008,06,10,07,06,7.50
2008,06,10,07,07,7.50
2008,06,10,07,08,7.50
2008,06,10,07,09,7.50
2008,06,10,07,10,7.60
2008,06,10,07,11,7.60
2008,06,10,07,12,7.60
2008,06,10,07,13,7.60
2008,06,10,07,14,7.60
2008,06,10,07,15,7.60
2008,06,10,07,16,7.60
2008,06,10,07,17,7.60
2008,06,10,07,18,7.60
2008,06,10,07,19,7.60
2008,06,10,07,20,7.60
2008,06,10,07,21,7.60
2008,06,10,07,22,7.60
2008,06,10,07,23,7.60
2008,06,10,07,24,7.70
2008,06,10,07,25,7.70
2008,06,10,07,26,7.70
2008,06,10,07,27,7.70
2008,06,10,07,28,7.70
2008,06,10,07,29,7.70
2008,06,10,07,30,7.70
2008,06,10,07,31,7.70
2008,06,10,07,32,7.70
2008,06,10,07,33,7.70
2008,06,10,07,34,7.70
2008,06,10,07,35,7.70
2008,06,10,07,36,7.80
2008,06,10,07,37,7.80
2008,06,10,07,38,7.80
2008,06,10,07,39,7.80
2008,06,10,07,40,7.80
2008,06,10,07,41,7.80
2008,06,10,07,42,7.80
2008,06,10,07,43,7.80
2008,06,10,07,44,7.80
2008,06,10,07,45,7.80
2008,06,10,07,46,7.80
2008,06,10,07,47,7.90
2008,06,10,07,48,7.90
2008,06,10,07,49,7.90
2008,06,10,07,50,7.90
2008,06,10,07,51,8.00
2008,06,10,07,52,8.00
2008,06,10,07,53,8.00
2008,06,10,07,54,8.00
2008,06,10,07,55,8.00
2008,06,10,07,56,8.00
2008,06,10,07,57,8.00
2008,06,10,07,58,8.00
2008,06,10,07,59,8.00
2008,06,10,08,00,8.00
2008,06,10,08,01,8.00
2008,06,10,08,02,8.00
2008,06,10,08,03,8.00
2008,06,10,08,04,8.10
2008,06,10,08,05,8.10
2008,06,10,08,06,8.10
2008,06,10,08,07,8.10
2008,06,10,08,08,8.10
2008,06,10,08,09,8.10
2008,06,10,08,10,8.10
2008,06,10,08,11,8.10
2008,06,10,08,12,8.10
2008,06,10,08,13,8.10
2008,06,10,08,14,8.20
2008,06,10,08,15,8.20
2008,06,10,08,16,8.20
2008,06,10,08,17,8.20
2008,06,10,08,18,8.20
2008,06,10,08,19,8.20
2008,06,10,08,20,8.20
2008,06,10,08,21,8.20
2008,06,10,08,22,8.20
2008,06,10,08,23,8.20
2008,06,10,08,24,8.20
2008,06,10,08,25,8.20
2008,06,10,08,26,8.20
2008,06,10,08,27,8.20
2008,06,10,08,28,8.20
2008,06,10,08,29,8.20
2008,06,10,08,30,8.20
2008,06,10,08,31,8.20
2008,06,10,08,32,8.30
2008,06,10,08,33,8.30
2008,06,10,08,34,8.30
2008,06,10,08,35,8.30
2008,06,10,08,36,8.30
2008,06,10,08,37,8.30
2008,06,10,08,38,8.30
2008,06,10,08,39,8.30
2008,06,10,08,40,8.40
2008,06,10,08,41,8.40
2008,06,10,08,42,8.40
2008,06,10,08,43,8.40
2008,06,10,08,44,8.40
2008,06,10,08,45,8.40
2008,06,10,08,46,8.40
2008,06,10,08,47,8.40
2008,06,10,08,48,8.40
2008,06,10,08,49,8.40
2008,06,10,08,50,8.40
2008,06,10,08,51,8.40
2008,06,10,08,52,8.40
2008,06,10,08,53,8.40
2008,06,10,08,54,8.40
2008,06,10,08,55,8.40
2008,06,10,08,56,8.40
2008,06,10,08,57,8.40
2008,06,10,08,58,8.40
2008,06,10,08,59,8.40
2008,06,10,09,00,8.40
2008,06,10,09,01,8.40
2008,06,10,09,02,8.40
2008,06,10,09,03,8.40
2008,06,10,09,04,8.40
2008,06,10,09,05,8.50
2008,06,10,09,06,8.50
2008,06,10,09,07,8.50
2008,06,10,09,08,8.50
2008,06,10,09,09,8.50
2008,06,10,09,10,8.50
2008,06,10,09,11,8.50
2008,06,10,09,12,8.50
2008,06,10,09,13,8.50
2008,06,10,09,14,8.50
2008,06,10,09,15,8.60
2008,06,10,09,16,8.60
2008,06,10,09,17,8.60
2008,06,10,09,18,8.60
2008,06,10,09,19,8.60
2008,06,10,09,20,8.60
2008,06,10,09,21,8.60
2008,06,10,09,22,8.60
2008,06,10,09,23,8.60
2008,06,10,09,24,8.60
2008,06,10,09,25,8.60
2008,06,10,09,26,8.60
2008,06,10,09,27,8.60
2008,06,10,09,28,8.60
2008,06,10,09,29,8.70
2008,06,10,09,30,8.70
2008,06,10,09,31,8.70
2008,06,10,09,32,8.70
2008,06,10,09,33,8.70
2008,06,10,09,34,8.70
2008,06,10,09,35,8.70
2008,06,10,09,36,8.70
2008,06,10,09,37,8.70
2008,06,10,09,38,8.80
2008,06,10,09,39,8.80
2008,06,10,09,40,8.80
2008,06,10,09,41,8.80
2008,06,10,09,42,8.80
2008,06,10,09,43,8.80
2008,06,10,09,44,8.80
2008,06,10,09,45,8.80
2008,06,10,09,46,8.90
2008,06,10,09,47,8.90
2008,06,10,09,48,8.90
2008,06,10,09,49,8.90
2008,06,10,09,50,9.00
2008,06,10,09,51,9.00
2008,06,10,09,52,9.00
2008,06,10,09,53,9.10
2008,06,10,09,54,9.10
2008,06,10,09,55,9.10
2008,06,10,09,56,9.20
2008,06,10,09,57,9.20
2008,06,10,09,58,9.20
2008,06,10,09,59,9.20
2008,06,10,10,00,9.20
2008,06,10,10,01,9.20
2008,06,10,10,02,9.20
2008,06,10,10,03,9.20
2008,06,10,10,04,9.30
2008,06,10,10,05,9.30
2008,06,10,10,06,9.30
2008,06,10,10,07,9.30
2008,06,10,10,08,9.30
2008,06,10,10,09,9.30
2008,06,10,10,10,9.30
2008,06,10,10,11,9.40
2008,06,10,10,12,9.40
2008,06,10,10,13,9.40
2008,06,10,10,14,9.40
2008,06,10,10,15,9.40
2008,06,10,10,16,9.40
2008,06,10,10,17,9.50
2008,06,10,10,18,9.50
2008,06,10,10,19,9.50
2008,06,10,10,20,9.50
2008,06,10,10,21,9.50
2008,06,10,10,22,9.50
2008,06,10,10,23,9.50
2008,06,10,10,24,9.50
2008,06,10,10,25,9.50
2008,06,10,10,26,9.50
2008,06,10,10,27,9.50
2008,06,10,10,28,9.50
2008,06,10,10,29,9.60
2008,06,10,10,30,9.60
2008,06,10,10,31,9.60
2008,06,10,10,32,9.60
2008,06,10,10,33,9.60
2008,06,10,10,34,9.60
2008,06,10,10,35,9.60
2008,06,10,10,36,9.60
2008,06,10,10,37,9.60
2008,06,10,10,38,9.60
2008,06,10,10,39,9.60
2008,06,10,10,40,9.60
2008,06,10,10,41,9.50
2008,06,10,10,42,9.50
2008,06,10,10,43,9.50
2008,06,10,10,44,9.60
2008,06,10,10,45,9.60
2008,06,10,10,46,9.60
2008,06,10,10,47,9.70
2008,06,10,10,48,9.70
2008,06,10,10,49,9.70
2008,06,10,10,50,9.70
2008,06,10,10,51,9.70
2008,06,10,10,52,9.70
2008,06,10,10,53,9.70
2008,06,10,10,54,9.70
2008,06,10,10,55,9.80
2008,06,10,10,56,9.80
2008,06,10,10,57,9.80
2008,06,10,10,58,9.80
2008,06,10,10,59,9.80
2008,06,10,11,00,9.90
2008,06,10,11,01,9.80
2008,06,10,11,02,9.80
2008,06,10,11,03,9.80
2008,06,10,11,04,9.80
2008,06,10,11,05,9.90
2008,06,10,11,06,9.90
2008,06,10,11,07,10.00
2008,06,10,11,08,10.00
2008,06,10,11,09,10.10
2008,06,10,11,10,10.20
2008,06,10,11,11,10.30
2008,06,10,11,12,10.30
2008,06,10,11,13,10.40
2008,06,10,11,14,10.40
2008,06,10,11,15,10.50
2008,06,10,11,16,10.50
2008,06,10,11,17,10.50
2008,06,10,11,18,10.50
2008,06,10,11,19,10.40
2008,06,10,11,20,10.40
2008,06,10,11,21,10.40
2008,06,10,11,22,10.40
2008,06,10,11,23,10.40
2008,06,10,11,24,10.40
2008,06,10,11,25,10.40
2008,06,10,11,26,10.40
2008,06,10,11,27,10.40
2008,06,10,11,28,10.40
2008,06,10,11,29,10.50
2008,06,10,11,30,10.50
2008,06,10,11,31,10.60
2008,06,10,11,32,10.60
2008,06,10,11,33,10.60
2008,06,10,11,34,10.60
2008,06,10,11,35,10.60
2008,06,10,11,36,10.60
2008,06,10,11,37,10.60
2008,06,10,11,38,10.60
2008,06,10,11,39,10.60
2008,06,10,11,40,10.60
2008,06,10,11,41,10.60
2008,06,10,11,42,10.60
2008,06,10,11,43,10.70
2008,06,10,11,44,10.70
2008,06,10,11,45,10.70
2008,06,10,11,46,10.70
2008,06,10,11,47,10.80
2008,06,10,11,48,10.80
2008,06,10,11,49,10.70
2008,06,10,11,50,10.70
2008,06,10,11,51,10.70
2008,06,10,11,52,10.80
2008,06,10,11,53,10.80
2008,06,10,11,54,10.80
2008,06,10,11,55,10.80
2008,06,10,11,56,10.80
2008,06,10,11,57,10.80
2008,06,10,11,58,10.80
2008,06,10,11,59,10.80
2008,06,10,12,00,10.80
2008,06,10,12,01,10.90
2008,06,10,12,02,10.90
2008,06,10,12,03,10.90
2008,06,10,12,04,11.00
2008,06,10,12,05,11.00
2008,06,10,12,06,11.10
2008,06,10,12,07,11.10
2008,06,10,12,08,11.10
2008,06,10,12,09,11.10
2008,06,10,12,10,11.00
2008,06,10,12,11,11.00
2008,06,10,12,12,10.90
2008,06,10,12,13,10.90
2008,06,10,12,14,10.80
2008,06,10,12,15,10.70
2008,06,10,12,16,10.70
2008,06,10,12,17,10.70
2008,06,10,12,18,10.60
2008,06,10,12,19,10.60
2008,06,10,12,20,10.60
2008,06,10,12,21,10.60
2008,06,10,12,22,10.60
2008,06,10,12,23,10.60
2008,06,10,12,24,10.60
2008,06,10,12,25,10.60
2008,06,10,12,26,10.60
2008,06,10,12,27,10.50
2008,06,10,12,28,10.50
2008,06,10,12,29,10.40
2008,06,10,12,30,10.40
2008,06,10,12,31,10.30
2008,06,10,12,32,10.20
2008,06,10,12,33,10.20
2008,06,10,12,34,10.10
2008,06,10,12,35,10.10
2008,06,10,12,36,10.10
2008,06,10,12,37,10.10
2008,06,10,12,38,10.20
2008,06,10,12,39,10.20
2008,06,10,12,40,10.20
2008,06,10,12,41,10.30
2008,06,10,12,42,10.30
2008,06,10,12,43,10.30
2008,06,10,12,44,10.30
2008,06,10,12,45,10.30
2008,06,10,12,46,10.30
2008,06,10,12,47,10.30
2008,06,10,12,48,10.20
2008,06,10,12,49,10.20
2008,06,10,12,50,10.20
2008,06,10,12,51,10.20
2008,06,10,12,52,10.20
2008,06,10,12,53,10.10
2008,06,10,12,54,10.10
2008,06,10,12,55,10.10
2008,06,10,12,56,10.00
2008,06,10,12,57,10.00
2008,06,10,12,58,10.00
2008,06,10,12,59,10.00
2008,06,10,13,00,10.00
2008,06,10,13,01,10.00
2008,06,10,13,02,10.00
2008,06,10,13,03,10.00
2008,06,10,13,04,10.10
2008,06,10,13,05,10.20
2008,06,10,13,06,10.20
2008,06,10,13,07,10.20
2008,06,10,13,08,10.30
2008,06,10,13,09,10.30
2008,06,10,13,10,10.30
2008,06,10,13,11,10.30
2008,06,10,13,12,10.30
2008,06,10,13,13,10.30
2008,06,10,13,14,10.30
2008,06,10,13,15,10.30
2008,06,10,13,16,10.30
2008,06,10,13,17,10.40
2008,06,10,13,18,10.40
2008,06,10,13,19,10.50
2008,06,10,13,20,10.50
2008,06,10,13,21,10.60
2008,06,10,13,22,10.70
2008,06,10,13,23,10.70
2008,06,10,13,24,10.60
2008,06,10,13,25,10.60
2008,06,10,13,26,10.50
2008,06,10,13,27,10.40
2008,06,10,13,28,10.40
2008,06,10,13,29,10.40
2008,06,10,13,30,10.40
2008,06,10,13,31,10.40
2008,06,10,13,32,10.50
2008,06,10,13,33,10.50
2008,06,10,13,34,10.40
2008,06,10,13,35,10.40
2008,06,10,13,36,10.40
2008,06,10,13,37,10.40
2008,06,10,13,38,10.40
2008,06,10,13,39,10.40
2008,06,10,13,40,10.50
2008,06,10,13,41,10.60
2008,06,10,13,42,10.70
2008,06,10,13,43,10.80
2008,06,10,13,44,10.90
2008,06,10,13,45,10.90
2008,06,10,13,46,11.00
2008,06,10,13,47,11.00
2008,06,10,13,48,11.00
2008,06,10,13,49,11.00
2008,06,10,13,50,10.90
2008,06,10,13,51,10.90
2008,06,10,13,52,10.90
2008,06,10,13,53,10.80
2008,06,10,13,54,10.80
2008,06,10,13,55,10.80
2008,06,10,13,56,10.80
2008,06,10,13,57,10.80
2008,06,10,13,58,10.80
2008,06,10,13,59,10.90
2008,06,10,14,00,10.90
2008,06,10,14,01,11.00
2008,06,10,14,02,11.00
2008,06,10,14,03,11.10
2008,06,10,14,04,11.20
2008,06,10,14,05,11.20
2008,06,10,14,06,11.30
2008,06,10,14,07,11.30
2008,06,10,14,08,11.40
2008,06,10,14,09,11.40
2008,06,10,14,10,11.50
2008,06,10,14,11,11.50
2008,06,10,14,12,11.60
2008,06,10,14,13,11.60
2008,06,10,14,14,11.70
2008,06,10,14,15,11.70
2008,06,10,14,16,11.80
2008,06,10,14,17,11.80
2008,06,10,14,18,11.80
2008,06,10,14,19,11.80
2008,06,10,14,20,11.80
2008,06,10,14,21,11.80
2008,06,10,14,22,11.80
2008,06,10,14,23,11.80
2008,06,10,14,24,11.80
2008,06,10,14,25,11.70
2008,06,10,14,26,11.70
2008,06,10,14,27,11.80
2008,06,10,14,28,11.80
2008,06,10,14,29,12.00
2008,06,10,14,30,12.10
2008,06,10,14,31,12.20
2008,06,10,14,32,12.20
2008,06,10,14,33,12.20
2008,06,10,14,34,12.20
2008,06,10,14,35,12.20
2008,06,10,14,36,12.30
2008,06,10,14,37,12.30
2008,06,10,14,38,12.20
2008,06,10,14,39,12.10
2008,06,10,14,40,12.00
2008,06,10,14,41,11.90
2008,06,10,14,42,11.80
2008,06,10,14,43,11.70
2008,06,10,14,44,11.60
2008,06,10,14,45,11.60
2008,06,10,14,46,11.60
2008,06,10,14,47,11.60
2008,06,10,14,48,11.80
2008,06,10,14,49,11.80
2008,06,10,14,50,11.90
2008,06,10,14,51,11.90
2008,06,10,14,52,11.90
2008,06,10,14,53,11.90
2008,06,10,14,54,11.90
2008,06,10,14,55,11.90
2008,06,10,14,56,11.90
2008,06,10,14,57,11.90
2008,06,10,14,58,12.00
2008,06,10,14,59,12.00
2008,06,10,15,00,12.10
2008,06,10,15,01,12.10
2008,06,10,15,02,12.10
2008,06,10,15,03,12.10
2008,06,10,15,04,12.10
2008,06,10,15,05,12.10
2008,06,10,15,06,12.20
2008,06,10,15,07,12.20
2008,06,10,15,08,12.20
2008,06,10,15,09,12.10
2008,06,10,15,10,12.00
2008,06,10,15,11,12.00
2008,06,10,15,12,12.10
2008,06,10,15,13,12.20
2008,06,10,15,14,12.30
2008,06,10,15,15,12.40
2008,06,10,15,16,12.40
2008,06,10,15,17,12.40
2008,06,10,15,18,12.50
2008,06,10,15,19,12.50
2008,06,10,15,20,12.60
2008,06,10,15,21,12.60
2008,06,10,15,22,12.60
2008,06,10,15,23,12.60
2008,06,10,15,24,12.70
2008,06,10,15,25,12.70
2008,06,10,15,26,12.80
2008,06,10,15,27,12.90
2008,06,10,15,28,12.90
2008,06,10,15,29,13.00
2008,06,10,15,30,13.10
2008,06,10,15,31,13.00
2008,06,10,15,32,12.90
2008,06,10,15,33,12.90
2008,06,10,15,34,12.90
2008,06,10,15,35,12.80
2008,06,10,15,36,12.60
2008,06,10,15,37,12.50
2008,06,10,15,38,12.50
2008,06,10,15,39,12.40
2008,06,10,15,40,12.40
2008,06,10,15,41,12.40
2008,06,10,15,42,12.40
2008,06,10,15,43,12.30
2008,06,10,15,44,12.40
2008,06,10,15,45,12.40
2008,06,10,15,46,12.40
2008,06,10,15,47,12.40
2008,06,10,15,48,12.40
2008,06,10,15,49,12.40
2008,06,10,15,50,12.40
2008,06,10,15,51,12.40
2008,06,10,15,52,12.50
2008,06,10,15,53,12.60
2008,06,10,15,54,12.60
2008,06,10,15,55,12.70
2008,06,10,15,56,12.70
2008,06,10,15,57,12.80
2008,06,10,15,58,13.00
2008,06,10,15,59,13.00
2008,06,10,16,00,13.10
2008,06,10,16,01,13.10
2008,06,10,16,02,13.00
2008,06,10,16,03,13.00
2008,06,10,16,04,13.00
2008,06,10,16,05,13.00
2008,06,10,16,06,13.00
2008,06,10,16,07,13.00
2008,06,10,16,08,13.00
2008,06,10,16,09,13.00
2008,06,10,16,10,13.00
2008,06,10,16,11,12.90
2008,06,10,16,12,13.00
2008,06,10,16,13,13.00
2008,06,10,16,14,13.00
2008,06,10,16,15,13.00
2008,06,10,16,16,13.10
2008,06,10,16,17,13.10
2008,06,10,16,18,13.20
2008,06,10,16,19,13.30
2008,06,10,16,20,13.30
2008,06,10,16,21,13.30
2008,06,10,16,22,13.30
2008,06,10,16,23,13.30
2008,06,10,16,24,13.30
2008,06,10,16,25,13.20
2008,06,10,16,26,13.20
2008,06,10,16,27,13.20
2008,06,10,16,28,13.10
2008,06,10,16,29,13.10
2008,06,10,16,30,13.10
2008,06,10,16,31,13.20
2008,06,10,16,32,13.30
2008,06,10,16,33,13.30
2008,06,10,16,34,13.30
2008,06,10,16,35,13.40
2008,06,10,16,36,13.30
2008,06,10,16,37,13.30
2008,06,10,16,38,13.30
2008,06,10,16,39,13.30
2008,06,10,16,40,13.30
2008,06,10,16,41,13.20
2008,06,10,16,42,13.20
2008,06,10,16,43,13.20
2008,06,10,16,44,13.20
2008,06,10,16,45,13.10
2008,06,10,16,46,13.10
2008,06,10,16,47,13.10
2008,06,10,16,48,13.10
2008,06,10,16,49,13.10
2008,06,10,16,50,13.20
2008,06,10,16,51,13.20
2008,06,10,16,52,13.30
2008,06,10,16,53,13.40
2008,06,10,16,54,13.40
2008,06,10,16,55,13.50
2008,06,10,16,56,13.60
2008,06,10,16,57,13.60
2008,06,10,16,58,13.70
2008,06,10,16,59,13.70
2008,06,10,17,00,13.70
2008,06,10,17,01,13.70
2008,06,10,17,02,13.60
2008,06,10,17,03,13.50
2008,06,10,17,04,13.40
2008,06,10,17,05,13.30
2008,06,10,17,06,13.30
2008,06,10,17,07,13.20
2008,06,10,17,08,13.20
2008,06,10,17,09,13.20
2008,06,10,17,10,13.10
2008,06,10,17,11,13.00
2008,06,10,17,12,12.90
2008,06,10,17,13,12.90
2008,06,10,17,14,12.80
2008,06,10,17,15,12.80
2008,06,10,17,16,12.80
2008,06,10,17,17,12.80
2008,06,10,17,18,12.90
2008,06,10,17,19,12.90
2008,06,10,17,20,13.00
2008,06,10,17,21,13.10
2008,06,10,17,22,13.20
2008,06,10,17,23,13.30
2008,06,10,17,24,13.40
2008,06,10,17,25,13.60
2008,06,10,17,26,13.70
2008,06,10,17,27,13.90
2008,06,10,17,28,14.00
2008,06,10,17,29,14.10
2008,06,10,17,30,14.10
2008,06,10,17,31,14.10
2008,06,10,17,32,14.20
2008,06,10,17,33,14.20
2008,06,10,17,34,14.20
2008,06,10,17,35,14.30
2008,06,10,17,36,14.20
2008,06,10,17,37,14.20
2008,06,10,17,38,14.20
2008,06,10,17,39,14.30
2008,06,10,17,40,14.30
2008,06,10,17,41,14.30
2008,06,10,17,42,14.30
2008,06,10,17,43,14.20
2008,06,10,17,44,14.20
2008,06,10,17,45,14.20
2008,06,10,17,46,14.10
2008,06,10,17,47,14.10
2008,06,10,17,48,14.10